Weather History for KTVL - April, 2012

Change the Weather History Date:

Wednesday, April 11, 2012

  Actual Average Record
Temperature  
Mean Temperature 37 °F 39 °F  
Max Temperature 44 °F 53 °F 75 °F (1988)
Min Temperature 30 °F 26 °F 12 °F (1999)
Degree Days  
Heating Degree Days 28 26  
Month to date heating degree days 299 292  
Since 1 July heating degree days 5836 6444  
Cooling Degree Days 0 0  
Month to date cooling degree days 0 0  
Year to date cooling degree days 0 0  
Moisture  
Dew Point 26 °F    
Average Humidity 58    
Maximum Humidity 85    
Minimum Humidity 31    
Precipitation  
Precipitation 0.05 in - 1.98 in (1982)
Month to date precipitation 0.13  
Year to date precipitation 8.96  
Sea Level Pressure  
Sea Level Pressure 29.80 in    
Wind  
Wind Speed 10 mph (South)    
Max Wind Speed 22 mph    
Max Gust Speed 31 mph    
Visibility 3 miles    
Events Fog , Snow    
T = Trace of Precipitation, MM = Missing Value Source: NWS Daily Summary

Daily Weather History Graph

Daily Weather History Graph

Search for Another Location

Airport or City:

Trip Planner

Search our weather history database for the weather conditions in past years. The results will help you decide how hot, cold, wet, or windy it might be!

Date:

Astronomy

Apr. 11, 2012 Rise Set
Actual Time 6:28 AM PDT 7:33 PM PDT
Civil Twilight 6:01 AM PDT 8:01 PM PDT
Nautical Twilight 5:28 AM PDT 8:33 PM PDT
Astronomical Twilight 4:54 AM PDT 9:07 PM PDT
Moon 12:31 AM PDT (4/11) 10:24 AM PDT (4/11)
Length of Visible Light 14h 00m
Length of Day
13h 05m
Waning Gibbous, 68% of the Moon is Illuminated
Apr 11
Waning Gibbous
Apr 13
Last Quarter
Apr 21
New
Apr 29
First Quarter
May 5
Full

Hourly Weather History & Observations

Time (PDT) Temp. Windchill Dew Point Humidity Pressure Visibility Wind Dir Wind Speed Gust Speed Precip Events Conditions
12:53 AM 44.6 °F 38.4 °F 15.8 °F 31% 29.72 in 10.0 mi South 12.7 mph - N/A   Partly Cloudy
1:53 AM 43.0 °F 37.7 °F 18.0 °F 37% 29.57 in 10.0 mi SSW 9.2 mph 19.6 mph N/A   Clear
2:53 AM 39.0 °F 31.4 °F 25.0 °F 57% 29.61 in 10.0 mi SSW 12.7 mph - N/A   Scattered Clouds
3:53 AM 37.9 °F 34.4 °F 27.0 °F 65% 29.61 in 10.0 mi Variable 4.6 mph - N/A   Overcast
4:53 AM 37.9 °F 30.9 °F 28.0 °F 68% 29.62 in 3.0 mi SSW 10.4 mph - 0.00 in Snow Light Snow
5:00 AM 37.4 °F 29.8 °F 30.2 °F 75% 29.71 in 1.8 mi SSW 11.5 mph - 0.00 in Snow Light Snow
5:08 AM 35.6 °F 29.2 °F 30.2 °F 81% 29.71 in 2.0 mi SSW 8.1 mph - N/A Snow Light Snow
5:17 AM 35.6 °F 28.6 °F 30.2 °F 81% 29.71 in 5.0 mi South 9.2 mph - 0.00 in Snow Light Snow
5:31 AM 35.6 °F 27.5 °F 30.2 °F 81% 29.72 in 5.0 mi SSW 11.5 mph - 0.00 in Snow Light Snow
5:38 AM 35.6 °F 27.5 °F 30.2 °F 81% 29.72 in 3.0 mi South 11.5 mph - 0.00 in Snow Light Snow
5:45 AM 35.6 °F 28.6 °F 30.2 °F 81% 29.72 in 2.5 mi SSW 9.2 mph - 0.00 in Snow Light Snow
5:53 AM 35.1 °F 28.6 °F 30.0 °F 82% 29.64 in 3.0 mi South 8.1 mph - 0.00 in Snow Light Snow
6:18 AM 35.6 °F 28.0 °F 30.2 °F 81% 29.73 in 2.5 mi SSW 10.4 mph - 0.00 in Snow Light Snow
6:40 AM 33.8 °F 27.0 °F 30.2 °F 87% 29.72 in 1.8 mi South 8.1 mph - 0.00 in Snow Light Snow
6:53 AM 34.0 °F 28.8 °F 28.9 °F 82% 29.66 in 1.5 mi SSE 5.8 mph - 0.00 in Snow Light Snow
7:14 AM 33.8 °F 27.7 °F 28.4 °F 81% 29.73 in 0.8 mi South 6.9 mph - 0.00 in Snow Light Snow
7:25 AM 33.8 °F 27.0 °F 28.4 °F 81% 29.73 in 1.2 mi South 8.1 mph - 0.00 in Snow Light Snow
7:53 AM 34.0 °F 29.8 °F 28.9 °F 82% 29.68 in 1.8 mi SSW 4.6 mph - 0.00 in Snow Light Snow
8:23 AM 33.8 °F 25.8 °F 28.4 °F 81% 29.74 in 2.5 mi South 10.4 mph - 0.00 in Snow Light Snow
8:37 AM 35.6 °F 28.0 °F 28.4 °F 75% 29.74 in 4.0 mi South 10.4 mph - 0.00 in   Haze
8:42 AM 35.6 °F 27.5 °F 28.4 °F 75% 29.74 in 5.0 mi South 11.5 mph - 0.00 in   Haze
8:53 AM 35.1 °F 26.9 °F 28.9 °F 78% 29.68 in 8.0 mi South 11.5 mph - 0.00 in   Overcast
9:41 AM 35.6 °F 28.6 °F 28.4 °F 75% 29.75 in 5.0 mi South 9.2 mph - 0.00 in   Haze
9:53 AM 37.0 °F 31.6 °F 30.0 °F 76% 29.69 in 5.0 mi SSW 6.9 mph - 0.00 in   Haze
10:00 AM 37.4 °F 30.3 °F 30.2 °F 75% 29.76 in 4.0 mi South 10.4 mph - N/A Snow Light Snow
10:16 AM 37.4 °F 29.8 °F 30.2 °F 75% 29.77 in 2.0 mi South 11.5 mph - 0.00 in Snow Light Snow
10:31 AM 37.4 °F 29.8 °F 30.2 °F 75% 29.77 in 3.0 mi South 11.5 mph - 0.00 in Snow Light Snow
10:38 AM 37.4 °F 29.3 °F 28.4 °F 70% 29.78 in 5.0 mi South 12.7 mph - 0.00 in Snow Light Snow
10:49 AM 37.4 °F 29.8 °F 28.4 °F 70% 29.79 in 2.5 mi South 11.5 mph - 0.00 in Snow Light Snow
10:53 AM 37.9 °F 31.5 °F 28.9 °F 70% 29.72 in 2.0 mi SSW 9.2 mph - 0.00 in Snow Light Snow
11:14 AM 37.4 °F 28.5 °F 28.4 °F 70% 29.80 in 3.0 mi South 15.0 mph 20.7 mph 0.00 in Snow Light Snow
11:23 AM 35.6 °F 27.5 °F 28.4 °F 75% 29.80 in 2.5 mi SSW 11.5 mph 20.7 mph 0.00 in Snow Light Snow
11:36 AM 35.6 °F 27.5 °F 28.4 °F 75% 29.81 in 1.0 mi South 11.5 mph 19.6 mph N/A Snow Light Snow
11:53 AM 36.0 °F 27.5 °F 28.0 °F 73% 29.76 in 1.5 mi South 12.7 mph - 0.00 in Snow Light Snow
12:17 PM 35.6 °F 27.1 °F 28.4 °F 75% 29.83 in 0.8 mi South 12.7 mph - 0.00 in Snow Light Snow
12:53 PM 34.0 °F 28.0 °F 27.0 °F 75% 29.79 in 1.2 mi Variable 6.9 mph 18.4 mph 0.00 in Snow Light Snow
1:08 PM 33.8 °F 25.8 °F 28.4 °F 81% 29.84 in 0.8 mi South 10.4 mph - N/A Snow Light Snow
1:27 PM 35.6 °F 27.1 °F 28.4 °F 75% 29.84 in 1.8 mi South 12.7 mph 20.7 mph N/A Snow Light Snow
1:31 PM 35.6 °F 26.6 °F 28.4 °F 75% 29.84 in 3.0 mi South 13.8 mph 20.7 mph 0.00 in Snow Light Snow
1:35 PM 37.4 °F 28.2 °F 26.6 °F 65% 29.84 in 6.0 mi South 16.1 mph 21.9 mph 0.00 in Snow Light Snow
1:53 PM 37.9 °F 29.2 °F 24.1 °F 57% 29.77 in 10.0 mi SSW 15.0 mph 26.5 mph 0.00 in   Mostly Cloudy
2:53 PM 37.9 °F 29.6 °F 21.9 °F 53% 29.78 in 4.0 mi SSW 13.8 mph 26.5 mph N/A   Haze
3:20 PM 35.6 °F 27.5 °F 23.0 °F 60% 29.84 in 3.0 mi SSW 11.5 mph 25.3 mph 0.00 in Snow Light Snow
3:32 PM 35.6 °F 28.6 °F 24.8 °F 65% 29.84 in 1.8 mi SW 9.2 mph 19.6 mph 0.00 in Snow Light Snow
3:41 PM 33.8 °F 26.4 °F 26.6 °F 75% 29.85 in 0.2 mi South 9.2 mph 16.1 mph 0.00 in Snow Heavy Snow
3:53 PM 34.0 °F 27.2 °F 28.0 °F 79% 29.81 in 2.0 mi SSE 8.1 mph - 0.00 in Snow Light Snow
3:59 PM 35.6 °F 28.6 °F 28.4 °F 75% 29.84 in 5.0 mi SSW 9.2 mph - 0.00 in Snow Light Snow
4:15 PM 37.4 °F 31.4 °F 23.0 °F 56% 29.84 in 10.0 mi South 8.1 mph 20.7 mph 0.00 in   Overcast
4:34 PM 35.6 °F 28.6 °F 24.8 °F 65% 29.85 in 2.5 mi South 9.2 mph 18.4 mph 0.00 in Snow Light Snow
4:41 PM 35.6 °F 26.2 °F 26.6 °F 70% 29.86 in 1.8 mi South 15.0 mph 23.0 mph 0.00 in Snow Light Snow
4:53 PM 35.1 °F 26.4 °F 24.1 °F 64% 29.82 in 2.5 mi SSW 12.7 mph 21.9 mph 0.00 in Snow Light Snow
5:13 PM 33.8 °F 27.7 °F 24.8 °F 70% 29.85 in 1.2 mi South 6.9 mph - 0.00 in Snow Light Snow
5:27 PM 33.8 °F 27.0 °F 26.6 °F 75% 29.85 in 0.5 mi SSW 8.1 mph - 0.00 in Snow Snow
5:40 PM 32.0 °F 25.6 °F 28.4 °F 87% 29.86 in 0.2 mi South 6.9 mph - 0.01 in Fog , Snow Snow
5:53 PM 32.0 °F 23.6 °F 28.0 °F 85% 29.84 in 0.5 mi South 10.4 mph - 0.01 in Fog , Snow Snow
6:02 PM 32.0 °F 27.5 °F 26.6 °F 80% 29.86 in 0.8 mi Variable 4.6 mph - 0.00 in Snow Light Snow
6:10 PM 33.8 °F 29.6 °F 26.6 °F 75% 29.86 in 1.5 mi South 4.6 mph - 0.00 in Snow Light Snow
6:21 PM 32.0 °F 24.2 °F 24.8 °F 75% 29.87 in 0.5 mi South 9.2 mph - 0.00 in Snow Snow
6:53 PM 30.9 °F 27.5 °F 25.0 °F 79% 29.86 in 0.5 mi South 3.5 mph - 0.00 in Snow Snow
7:10 PM 30.2 °F 24.3 °F 26.6 °F 86% 29.87 in 0.2 mi SSE 5.8 mph - 0.01 in Fog , Snow Snow
7:29 PM 30.2 °F 23.4 °F 24.8 °F 80% 29.87 in 0.5 mi SSE 6.9 mph - N/A Snow Snow
7:36 PM 30.2 °F 25.4 °F 24.8 °F 80% 29.87 in 0.8 mi Variable 4.6 mph - 0.01 in Snow Light Snow
7:44 PM 30.2 °F 24.3 °F 24.8 °F 80% 29.87 in 0.8 mi SSE 5.8 mph - 0.01 in Snow Light Snow
7:53 PM 30.0 °F 24.1 °F 25.0 °F 82% 29.87 in 0.8 mi SSE 5.8 mph - 0.02 in Snow Light Snow
8:10 PM 30.2 °F 26.7 °F 24.8 °F 80% 29.88 in 1.5 mi Variable 3.5 mph - 0.00 in Snow Light Snow
8:14 PM 30.2 °F 24.3 °F 24.8 °F 80% 29.88 in 3.0 mi ESE 5.8 mph - 0.00 in Snow Light Snow
8:24 PM 30.2 °F 21.9 °F 24.8 °F 80% 29.88 in 2.5 mi SSW 9.2 mph - 0.00 in Snow Light Snow
8:31 PM 30.2 °F 26.7 °F 24.8 °F 80% 29.88 in 4.0 mi Variable 3.5 mph - 0.00 in Snow Light Snow
8:44 PM 30.2 °F 23.4 °F 24.8 °F 80% 29.88 in 2.5 mi Variable 6.9 mph 29.9 mph 0.00 in Snow Light Snow
8:53 PM 30.9 °F 24.3 °F 25.0 °F 79% 29.88 in 3.0 mi South 6.9 mph - 0.00 in Snow Light Snow
9:05 PM 32.0 °F 22.1 °F 23.0 °F 69% 29.89 in 6.0 mi SSW 13.8 mph 20.7 mph 0.00 in Snow Light Snow
9:12 PM 32.0 °F 22.5 °F 21.2 °F 64% 29.88 in 6.0 mi SSW 12.7 mph 20.7 mph 0.00 in Snow Light Snow
9:18 PM 32.0 °F 23.6 °F 23.0 °F 69% 29.88 in 4.0 mi SSW 10.4 mph 19.6 mph 0.00 in Snow Light Snow
9:24 PM 32.0 °F 23.6 °F 23.0 °F 69% 29.88 in 2.5 mi SSW 10.4 mph - 0.00 in Snow Light Snow
9:32 PM 32.0 °F 24.8 °F 23.0 °F 69% 29.88 in 4.0 mi South 8.1 mph - 0.01 in Snow Light Snow
9:36 PM 32.0 °F 24.8 °F 23.0 °F 69% 29.88 in 7.0 mi SSE 8.1 mph - 0.01 in Snow Light Snow
9:44 PM 32.0 °F 23.6 °F 21.2 °F 64% 29.87 in 10.0 mi SE 10.4 mph 17.3 mph 0.01 in   Overcast
9:53 PM 32.0 °F 24.8 °F 23.0 °F 69% 29.86 in 10.0 mi SE 8.1 mph - 0.01 in   Overcast
10:02 PM 32.0 °F 24.8 °F 23.0 °F 69% 29.88 in 2.5 mi SSE 8.1 mph - 0.00 in Snow Light Snow
10:10 PM 30.2 °F 25.4 °F 24.8 °F 80% 29.88 in 0.8 mi SSE 4.6 mph - 0.00 in Snow Light Snow
10:17 PM 30.2 °F 25.4 °F 26.6 °F 86% 29.88 in 0.5 mi SE 4.6 mph - 0.00 in Snow Snow
10:30 PM 30.2 °F 23.4 °F 24.8 °F 80% 29.87 in 1.5 mi Variable 6.9 mph - 0.00 in Snow Light Snow
10:33 PM 30.2 °F 25.4 °F 24.8 °F 80% 29.88 in 2.5 mi SE 4.6 mph - 0.00 in Snow Light Snow
10:40 PM 32.0 °F 25.6 °F 24.8 °F 75% 29.88 in 4.0 mi Variable 6.9 mph 18.4 mph 0.00 in Snow Light Snow
10:45 PM 32.0 °F 24.8 °F 24.8 °F 75% 29.88 in 1.8 mi SE 8.1 mph 18.4 mph 0.00 in Snow Light Snow
10:53 PM 30.9 °F 21.7 °F 25.0 °F 79% 29.86 in 1.2 mi South 11.5 mph 16.1 mph 0.00 in Snow Light Snow
11:15 PM 32.0 °F 23.6 °F 24.8 °F 75% 29.88 in 3.0 mi South 10.4 mph 23.0 mph 0.01 in Snow Light Snow
11:21 PM 32.0 °F 23.6 °F 21.2 °F 64% 29.88 in 8.0 mi South 10.4 mph 23.0 mph 0.01 in Snow Light Snow
11:53 PM 32.0 °F 21.2 °F 19.9 °F 61% 29.87 in 9.0 mi SSE 16.1 mph 27.6 mph 0.01 in   Overcast